This is the latest recevied weather packets stored in our database for station/object OE5RPP. If no packets are shown the sender has not sent any weather packets the latest 1 day(s).
| Time | Temp. | Humidity | Pressure | Rain* | Wind** | Luminosity | Snow |
|---|---|---|---|---|---|---|---|
| 1836274459 | 7.78° C | 70% | 1025.9 hPa | 0 mm | 0 m/s | - | - |
| 1836274310 | 7.22° C | 70% | 1025.9 hPa | 0 mm | 0 m/s | - | - |
| 1778027466 | 12.22° C | 48% | 1012.9 hPa | 0 mm | 2.24 m/s, 180° | - | - |
| 1778026866 | 12.22° C | 48% | 1012.9 hPa | 0 mm | 0.89 m/s, 202° | - | - |
| 1778026265 | 12.22° C | 48% | 1012.9 hPa | 0 mm | 0 m/s | - | - |
| 1778025666 | 12.22° C | 47% | 1012.9 hPa | 0 mm | 0 m/s | - | - |
| 1778025066 | 12.78° C | 47% | 1012.9 hPa | 0 mm | 0 m/s | - | - |
| 1778024465 | 13.33° C | 47% | 1012.9 hPa | 0 mm | 1.34 m/s, 270° | - | - |
| 1778023867 | 13.33° C | 46% | 1012.9 hPa | 0 mm | 1.79 m/s, 270° | - | - |
| 1778023267 | 13.33° C | 46% | 1012.9 hPa | 0 mm | 2.24 m/s, 315° | - | - |
| 1778022666 | 13.89° C | 42% | 1012.9 hPa | 0 mm | 1.79 m/s, 315° | - | - |
| 1778022065 | 13.89° C | 41% | 1012.9 hPa | 0 mm | 1.79 m/s, 292° | - | - |
| 1778021465 | 13.89° C | 43% | 1012.9 hPa | 0 mm | 2.68 m/s, 270° | - | - |
| 1778020867 | 13.89° C | 46% | 1011.9 hPa | 0 mm | 2.68 m/s, 292° | - | - |
| 1778020266 | 13.33° C | 53% | 1011.9 hPa | 0 mm | 1.79 m/s, 225° | - | - |
| 1778019665 | 13.33° C | 54% | 1011.9 hPa | 0 mm | 1.79 m/s, 202° | - | - |
| 1778019067 | 13.33° C | 55% | 1011.9 hPa | 0 mm | 0.45 m/s, 180° | - | - |
| 1778018466 | 13.33° C | 56% | 1011.9 hPa | 0 mm | 1.34 m/s, 180° | - | - |
| 1778017865 | 13.33° C | 58% | 1011.9 hPa | 0 mm | 1.34 m/s, 270° | - | - |
| 1778017267 | 12.78° C | 59% | 1011.9 hPa | 0 mm | 1.79 m/s, 157° | - | - |
| 1778016666 | 12.22° C | 60% | 1010.9 hPa | 0 mm | 1.79 m/s, 247° | - | - |
| 1778016066 | 11.11° C | 58% | 1010.9 hPa | 0 mm | 1.34 m/s, 247° | - | - |
| 1778015466 | 10.56° C | 57% | 1010.9 hPa | 0 mm | 0.89 m/s, 315° | - | - |
| 1778014865 | 11.11° C | 54% | 1010.9 hPa | 0 mm | 0.45 m/s, 45° | - | - |
| 1778013667 | 11.11° C | 53% | 1010.9 hPa | 0 mm | 0.45 m/s, 45° | - | - |
* Rain latest hour (hover to see other rain measurements)
** Current wind speed in m/s (hover to see current wind gust speed)